Weather reports worldwide

Advertisment
Ontario, or, United States of America (2074747): temperature & dewpoint: 13.09.2019 12:00:00 - 19.09.2019 12:00:00 (MDT)Ontario, or, United States of America (2074747): wind speed & gusts: 13.09.2019 12:00:00 - 19.09.2019 12:00:00 (MDT)Ontario, or, United States of America (2074747): wind direction: 13.09.2019 12:00:00 - 19.09.2019 12:00:00 (MDT)Ontario, or, United States of America (2074747): reduced air pressure: 13.09.2019 12:00:00 - 19.09.2019 12:00:00 (MDT)Ontario, or, United States of America (2074747): visibility: 13.09.2019 12:00:00 - 19.09.2019 12:00:00 (MDT)Ontario, or, United States of America (2074747): precipitation: 13.09.2019 12:00:00 - 19.09.2019 12:00:00 (MDT)
Date & Time tt [°C] td [°C] ff [km/h] ff [kn] fx [km/h] fx [kn] dd ppp [hPa] vv [km] rr [mm]
19.09.2019 12:00:00 15,6 10,0 5 3 - - S 1014,5 16 -
19.09.2019 11:00:00 13,9 8,9 8 4 - - ESE 1014,8 16 -
19.09.2019 10:00:00 12,8 8,9 0 0 - - N 1014,9 16 -
19.09.2019 09:00:00 8,3 6,1 5 3 - - N 1014,8 16 -
19.09.2019 08:00:00 7,8 5,6 5 3 - - W 1014,4 16 -
19.09.2019 07:00:00 8,3 6,1 0 0 - - N 1014,4 16 -
19.09.2019 06:00:00 8,3 6,1 0 0 - - N 1014,1 16 -
19.09.2019 05:00:00 8,9 6,1 0 0 - - N 1014,0 16 -
19.09.2019 04:00:00 9,4 7,2 9 5 - - W 1013,8 16 -
19.09.2019 03:00:00 9,4 7,8 15 8 - - W 1013,7 16 -
19.09.2019 02:00:00 10,0 7,8 8 4 - - SSW 1013,8 16 -
19.09.2019 01:00:00 10,0 7,8 5 3 - - WNW 1013,4 16 -
19.09.2019 00:00:00 10,6 8,3 0 0 - - N 1013,7 16 -
18.09.2019 23:00:00 11,7 9,4 0 0 - - N 1013,8 16 -
18.09.2019 22:00:00 12,2 10,0 5 3 - - NW 1013,3 16 -
18.09.2019 21:00:00 12,8 10,6 5 3 - - WNW 1013,3 16 -
18.09.2019 20:00:00 14,4 11,1 8 4 - - NNW 1012,6 10 -
18.09.2019 19:00:00 15,6 11,1 8 4 - - NNW 1012,4 16 -
18.09.2019 18:00:00 16,7 11,1 8 4 - - ENE 1012,5 16 -
18.09.2019 17:00:00 16,1 11,7 0 0 - - N 1012,4 16 -
18.09.2019 16:00:00 15,6 11,7 5 3 - - E 1012,5 16 0,5
18.09.2019 15:00:00 14,4 11,7 8 4 - - NNW 1013,1 6 0,5
18.09.2019 14:00:00 15,0 11,1 5 3 - - ENE 1013,0 16 0,0
18.09.2019 13:00:00 15,0 11,7 8 4 - - SE 1013,2 16 0,0
18.09.2019 12:00:00 14,4 11,1 0 0 - - N 1012,6 16 -
18.09.2019 11:00:00 13,9 11,7 0 0 - - N 1012,7 16 0,3
18.09.2019 10:00:00 13,3 11,7 0 0 - - N 1012,5 6 2,0
18.09.2019 09:00:00 13,3 11,1 0 0 - - N 1012,4 16 0,3
18.09.2019 08:00:00 12,8 11,1 5 3 - - NNE 1011,9 16 1,5
18.09.2019 07:00:00 12,8 11,1 0 0 - - N 1012,0 15 2,3
18.09.2019 06:00:00 12,8 11,1 5 3 - - WNW 1011,7 4,8 1,8
18.09.2019 05:00:00 13,3 10,0 9 5 - - W 1011,7 16 0,0
18.09.2019 04:00:00 13,3 10,0 15 8 - - W 1011,3 16 -
18.09.2019 03:00:00 13,3 10,0 9 5 - - W 1011,4 16 -
18.09.2019 02:00:00 13,3 10,0 9 5 - - NW 1011,9 16 -
18.09.2019 01:00:00 13,9 9,4 8 4 - - N 1012,6 16 -
18.09.2019 00:00:00 14,4 8,9 9 5 - - NNE 1013,0 16 0,0
17.09.2019 23:00:00 15,0 8,3 13 7 - - NNW 1013,6 16 0,0
17.09.2019 22:00:00 16,1 7,2 0 0 - - N 1014,1 16 -
17.09.2019 21:00:00 16,7 6,1 9 5 - - W 1014,3 16 -
17.09.2019 20:00:00 17,8 6,7 13 7 - - WNW 1013,8 16 -
17.09.2019 19:00:00 19,4 7,8 5 3 - - - 1014,0 16 -
17.09.2019 18:00:00 20,6 7,2 9 5 - - ESE 1014,0 16 -
17.09.2019 17:00:00 20,6 7,8 13 7 - - SE 1014,4 16 -
17.09.2019 16:00:00 21,7 6,7 18 10 - - SSE 1014,7 16 -
17.09.2019 15:00:00 20,6 6,7 13 7 - - SE 1015,6 16 -
17.09.2019 14:00:00 19,4 5,6 15 8 - - SSW 1016,3 16 -
17.09.2019 13:00:00 18,3 4,4 5 3 - - - 1016,5 16 -
17.09.2019 12:00:00 17,2 6,1 9 5 - - SW 1017,4 16 -
17.09.2019 11:00:00 15,6 7,2 11 6 - - SSW 1017,7 16 -
17.09.2019 10:00:00 13,3 8,3 13 7 - - SW 1017,7 16 -
17.09.2019 09:00:00 12,2 9,4 8 4 - - SW 1017,3 16 -
17.09.2019 08:00:00 11,7 10,0 5 3 - - SW 1016,2 16 -
17.09.2019 07:00:00 11,7 10,0 5 3 - - SSW 1015,3 16 -
17.09.2019 06:00:00 12,2 10,0 5 3 - - S 1014,6 16 -
17.09.2019 05:00:00 12,2 10,6 5 3 - - SSW 1014,1 16 0,0
17.09.2019 04:00:00 12,2 10,6 5 3 - - SSE 1013,3 16 0,8
17.09.2019 03:00:00 12,2 10,0 0 0 - - N 1013,4 11 0,3
17.09.2019 02:00:00 12,2 10,6 9 5 - - SW 1012,9 4,8 2,3
17.09.2019 01:00:00 12,8 10,0 9 5 - - SSE 1012,4 16 0,8
17.09.2019 00:00:00 12,8 10,6 13 7 - - ESE 1012,3 16 0,8
16.09.2019 23:00:00 13,3 11,1 13 7 - - ESE 1012,3 16 3,6
16.09.2019 22:00:00 13,9 10,0 9 5 - - SSE 1011,7 8 1,8
16.09.2019 21:00:00 15,0 9,4 15 8 - - WSW 1011,0 15 0,5
16.09.2019 20:00:00 18,9 5,0 24 13 - - WSW 1009,5 16 -
16.09.2019 19:00:00 20,0 3,9 15 8 - - W 1008,6 16 -
16.09.2019 18:00:00 21,7 3,9 29 16 50 27 W 1007,7 16 -
16.09.2019 17:00:00 23,3 4,4 37 20 57 31 W 1007,0 16 -
16.09.2019 16:00:00 27,2 4,4 21 11 - - W 1005,6 16 -
16.09.2019 15:00:00 25,0 4,4 22 12 - - W 1005,9 16 -
16.09.2019 14:00:00 23,9 6,1 16 9 - - W 1006,0 16 -
16.09.2019 13:00:00 22,8 6,7 11 6 - - W 1006,4 16 -
16.09.2019 12:00:00 20,6 7,2 5 3 - - - 1007,0 16 -
16.09.2019 11:00:00 17,2 7,2 0 0 - - N 1007,1 16 -
16.09.2019 10:00:00 16,1 7,8 5 3 - - WSW 1006,7 16 -
16.09.2019 09:00:00 13,9 7,8 5 3 - - SW 1006,6 16 -
16.09.2019 08:00:00 13,3 6,7 9 5 - - W 1006,3 16 -
16.09.2019 07:00:00 13,9 6,7 8 4 - - WNW 1005,6 16 -
16.09.2019 06:00:00 15,0 6,1 13 7 - - WNW 1005,7 16 -
16.09.2019 05:00:00 14,4 6,1 11 6 - - W 1005,9 16 -
16.09.2019 04:00:00 15,6 6,1 13 7 - - WNW 1005,8 16 -
16.09.2019 03:00:00 17,2 5,6 16 9 - - NW 1005,8 16 -
16.09.2019 02:00:00 17,2 5,6 18 10 - - NW 1005,2 16 -
16.09.2019 01:00:00 18,3 5,6 5 3 - - - 1004,3 16 -
16.09.2019 00:00:00 19,4 5,6 16 9 - - WNW 1003,2 16 -
15.09.2019 23:00:00 21,7 4,4 9 5 - - N 1002,4 16 -
15.09.2019 22:00:00 23,3 0,6 11 6 - - W 1001,2 16 -
15.09.2019 21:00:00 26,1 1,1 16 9 - - S 1000,6 16 -
15.09.2019 20:00:00 26,1 3,9 13 7 - - SSE 1000,6 16 -
15.09.2019 19:00:00 32,2 0,0 22 12 - - SSE 1000,7 16 -
15.09.2019 18:00:00 33,3 0,6 16 9 - - SSE 1001,3 16 -
15.09.2019 17:00:00 34,4 1,1 15 8 - - SSE 1002,1 16 -
15.09.2019 16:00:00 33,9 0,0 11 6 - - SE 1003,3 16 -
15.09.2019 15:00:00 33,3 1,7 8 4 - - ESE 1004,8 16 -
15.09.2019 14:00:00 31,7 4,4 9 5 - - - 1006,1 16 -
15.09.2019 13:00:00 28,3 8,9 5 3 - - - 1007,5 16 -
15.09.2019 12:00:00 25,0 7,8 0 0 - - N 1008,6 16 -
15.09.2019 11:00:00 21,1 8,3 0 0 - - N 1009,7 16 -
15.09.2019 10:00:00 17,2 7,8 0 0 - - N 1010,3 16 -
15.09.2019 09:00:00 11,7 7,2 0 0 - - N 1010,2 16 -
15.09.2019 08:00:00 10,0 6,7 0 0 - - N 1009,8 16 -
15.09.2019 07:00:00 10,0 6,7 0 0 - - N 1009,2 16 -
15.09.2019 06:00:00 10,0 6,7 8 4 - - NNW 1008,9 16 -
15.09.2019 05:00:00 11,1 7,2 0 0 - - N 1008,5 16 -
15.09.2019 04:00:00 12,8 7,8 0 0 - - N 1008,4 16 -
15.09.2019 03:00:00 13,3 8,3 8 4 - - SW 1008,5 16 -
15.09.2019 02:00:00 14,4 8,9 5 3 - - WSW 1008,4 16 -
15.09.2019 01:00:00 13,3 8,9 8 4 - - WNW 1008,3 16 -
15.09.2019 00:00:00 17,2 10,0 5 3 - - NNW 1008,4 16 -
14.09.2019 23:00:00 18,3 10,6 5 3 - - W 1009,1 16 -
14.09.2019 22:00:00 18,3 8,9 5 3 - - NNW 1009,6 16 -
14.09.2019 21:00:00 23,3 10,6 0 0 - - N 1009,2 16 -
14.09.2019 20:00:00 27,2 9,4 0 0 - - N 1009,4 16 -
14.09.2019 19:00:00 31,1 8,9 9 5 - - ESE 1009,8 16 -
14.09.2019 18:00:00 32,2 7,2 8 4 - - - 1010,5 16 -
14.09.2019 17:00:00 31,7 7,2 8 4 - - SE 1011,4 16 -
14.09.2019 16:00:00 31,1 8,3 8 4 - - - 1012,5 16 -
14.09.2019 15:00:00 29,4 8,3 0 0 - - N 1013,6 16 -
14.09.2019 14:00:00 27,8 8,9 8 4 - - - 1015,1 16 -
14.09.2019 13:00:00 25,6 7,8 0 0 - - N 1016,4 16 -
14.09.2019 12:00:00 22,2 8,3 0 0 - - N 1017,6 16 -
14.09.2019 11:00:00 20,0 8,9 0 0 - - N 1018,4 16 -
14.09.2019 10:00:00 17,2 8,9 0 0 - - N 1018,7 16 -
14.09.2019 09:00:00 13,9 8,3 0 0 - - N 1018,5 16 -
14.09.2019 08:00:00 10,0 7,2 0 0 - - N 1018,4 16 -
14.09.2019 07:00:00 9,4 6,1 0 0 - - N 1017,8 16 -
14.09.2019 06:00:00 11,7 7,2 0 0 - - N 1017,1 16 -
14.09.2019 05:00:00 11,7 7,2 0 0 - - N 1017,0 16 -
14.09.2019 04:00:00 13,3 7,8 0 0 - - N 1016,8 16 -
14.09.2019 03:00:00 13,9 8,3 5 3 - - SSW 1016,9 16 -
14.09.2019 02:00:00 15,0 7,8 8 4 - - WSW 1016,9 16 -
14.09.2019 01:00:00 16,1 7,8 9 5 - - W 1016,7 16 -
14.09.2019 00:00:00 17,8 8,3 0 0 - - N 1016,6 16 -
13.09.2019 23:00:00 18,3 7,2 0 0 - - N 1016,7 16 -
13.09.2019 22:00:00 20,0 7,8 8 4 - - NNW 1016,4 16 -
13.09.2019 21:00:00 20,0 9,4 8 4 - - W 1016,4 16 -
13.09.2019 20:00:00 25,0 7,2 5 3 - - NNW 1015,8 16 -
13.09.2019 19:00:00 28,9 6,7 5 3 - - NNE 1015,7 16 -
13.09.2019 18:00:00 30,0 5,6 0 0 - - N 1016,2 16 -
13.09.2019 17:00:00 29,4 6,7 8 4 - - - 1016,7 16 -
13.09.2019 16:00:00 28,9 6,1 5 3 - - ENE 1017,3 16 -
13.09.2019 15:00:00 27,8 6,7 5 3 - - - 1018,3 16 -
13.09.2019 14:00:00 25,6 7,2 8 4 - - - 1019,4 16 -
13.09.2019 13:00:00 23,3 7,2 5 3 - - SE 1020,3 16 -
13.09.2019 12:00:00 - - - - - - - - - -

tt = temperature
td = dewpoint
ff = wind speed
fx = gusts
dd = wind direction
ppp = reduced air pressure
vv = visibility
rr = precipitation

Next stations